Milan, NH

8:14 AM EST on February 10, 2016 (GMT -0500)
Berlin Municipal

Weather History for KBML - December, 2013

Change the Weather History Date:

Sunday, December 15, 2013

  Actual Average Record
Temperature  
Mean Temperature 14 °F -  
Max Temperature 19 °F - - ()
Min Temperature 9 °F - - ()
Degree Days  
Heating Degree Days 51    
Moisture  
Dew Point 10 °F    
Average Humidity 83    
Maximum Humidity 88    
Minimum Humidity 73    
Precipitation  
Precipitation 0.51 in - - ()
Sea Level Pressure  
Sea Level Pressure 29.79 in    
Wind  
Wind Speed 3 mph (North)    
Max Wind Speed 13 mph    
Max Gust Speed 21 mph    
Visibility 2 miles    
Events Fog , Snow    
T = Trace of Precipitation, MM = Missing Value Source: NWS Daily Summary

Daily Weather History Graph

Daily Weather History Graph

Search for Another Location

Airport or City:

Trip Planner

Search our weather history database for the weather conditions in past years. The results will help you decide how hot, cold, wet, or windy it might be!

Date:

Astronomy

Dec. 15, 2013 Rise Set
Actual Time 7:14 AM EST 4:05 PM EST
Civil Twilight 6:41 AM EST 4:38 PM EST
Nautical Twilight 6:04 AM EST 5:15 PM EST
Astronomical Twilight 5:28 AM EST 5:51 PM EST
Moon 3:10 PM EST (12/15) 5:25 AM EST (12/15)
Length of Visible Light 9h 57m
Length of Day
8h 50m
Waxing Gibbous, 97% of the Moon is Illuminated
Dec 15
Waxing Gibbous
Dec 17
Full
Dec 25
Last Quarter
Jan 1
New
Jan 7
First Quarter

Hourly Weather History & Observations

Time (EST) Temp. Windchill Dew Point Humidity Pressure Visibility Wind Dir Wind Speed Gust Speed Precip Events Conditions
12:04 AM 9.0 °F - 5.0 °F 84% 30.21 in 1.8 mi Calm Calm - 0.00 in Snow Light Snow
12:18 AM 9.0 °F 0.6 °F 3.9 °F 80% 30.20 in 0.8 mi NNW 4.6 mph - 0.01 in Snow Light Snow
12:27 AM 9.0 °F 2.4 °F 5.0 °F 84% 30.19 in 1.2 mi West 3.5 mph - 0.01 in Snow Light Snow
12:34 AM 9.0 °F 2.4 °F 3.9 °F 80% 30.18 in 1.8 mi NW 3.5 mph - 0.01 in Snow Light Snow
12:52 AM 9.0 °F - 3.9 °F 80% 30.24 in 2.0 mi Calm Calm - 0.02 in Snow Light Snow
1:04 AM 10.0 °F - 5.0 °F 80% 30.14 in 3.0 mi Calm Calm - 0.00 in Snow Light Snow
1:15 AM 10.0 °F - 3.9 °F 76% 30.12 in 3.0 mi Calm Calm - 0.00 in Snow Light Snow
1:21 AM 10.9 °F 2.9 °F 3.9 °F 73% 30.11 in 2.5 mi ENE 4.6 mph - 0.00 in Snow Light Snow
1:41 AM 10.9 °F - 5.0 °F 77% 30.11 in 1.2 mi Calm Calm - 0.00 in Snow Light Snow
1:49 AM 10.4 °F - 6.8 °F 85% 30.10 in 0.8 mi Calm Calm - 0.01 in Snow Light Snow
1:52 AM 10.0 °F - 6.1 °F 84% 30.18 in 0.8 mi Calm Calm - 0.01 in Snow Light Snow
2:11 AM 10.0 °F - 6.1 °F 84% 30.07 in 0.8 mi Calm Calm - 0.01 in Snow Light Snow
2:45 AM 10.9 °F 4.7 °F 8.1 °F 88% 30.05 in 0.2 mi SSW 3.5 mph - 0.06 in Fog , Snow Heavy Snow
2:52 AM 10.9 °F - 8.1 °F 88% 30.14 in 0.5 mi Calm Calm - 0.07 in Fog , Snow Snow
3:00 AM 10.9 °F - 8.1 °F 88% 30.04 in 0.5 mi Calm Calm - 0.01 in Fog , Snow Snow
3:08 AM 10.9 °F - 7.0 °F 84% 30.04 in 0.5 mi Calm Calm - 0.02 in Fog , Snow Snow
3:39 AM 12.0 °F - 7.0 °F 80% 29.99 in 1.0 mi Calm Calm - 0.05 in Snow Light Snow
3:43 AM 12.0 °F 0.5 °F 8.1 °F 84% 29.99 in 0.8 mi ESE 8.1 mph - 0.05 in Snow Light Snow
3:52 AM 12.0 °F 1.5 °F 8.1 °F 84% 30.04 in 0.8 mi Variable 6.9 mph - 0.05 in Snow Light Snow
4:04 AM 10.9 °F 2.9 °F 8.1 °F 88% 29.95 in 0.8 mi Variable 4.6 mph - 0.01 in Snow Light Snow
4:21 AM 12.0 °F 5.9 °F 8.1 °F 84% 29.93 in 0.2 mi Variable 3.5 mph - 0.04 in Fog , Snow Heavy Snow
4:31 AM 12.9 °F -0.2 °F 9.0 °F 84% 29.91 in 0.2 mi SE 10.4 mph - 0.07 in Fog , Snow Heavy Snow
4:45 AM 14.0 °F 1.2 °F 10.0 °F 84% 29.90 in 0.5 mi SE 10.4 mph - 0.08 in Fog , Snow Snow
4:52 AM 14.0 °F 1.2 °F 10.0 °F 84% 29.96 in 0.5 mi SE 10.4 mph - 0.09 in Fog , Snow Snow
5:20 AM 16.0 °F 2.3 °F 12.0 °F 84% 29.86 in 0.2 mi SE 12.7 mph 20.7 mph 0.02 in Fog , Snow Heavy Snow
5:38 AM 16.0 °F 3.6 °F 12.9 °F 88% 29.82 in 0.2 mi SE 10.4 mph - 0.05 in Fog , Snow Heavy Snow
5:41 AM 16.0 °F 2.9 °F 12.9 °F 88% 29.81 in 0.5 mi SE 11.5 mph - 0.05 in Fog , Snow Snow
5:52 AM 17.1 °F 5.8 °F 12.9 °F 84% 29.90 in 0.8 mi SE 9.2 mph 16.1 mph 0.06 in Snow Light Snow
6:09 AM 17.1 °F 6.6 °F 12.0 °F 81% 29.81 in 1.0 mi ESE 8.1 mph 20.7 mph 0.01 in Snow Light Snow
6:27 AM 16.0 °F 10.4 °F 12.0 °F 84% 29.79 in 0.8 mi SSE 3.5 mph - 0.02 in Snow Light Snow
6:38 AM 16.0 °F 8.8 °F 12.0 °F 84% 29.76 in 0.5 mi ESE 4.6 mph - 0.03 in Fog , Snow Snow
6:52 AM 15.1 °F 9.4 °F 12.0 °F 88% 29.85 in 0.8 mi WNW 3.5 mph - 0.04 in Snow Light Snow
7:27 AM 15.1 °F 9.4 °F 10.0 °F 80% 29.70 in 1.0 mi North 3.5 mph - 0.03 in Snow Light Snow
7:42 AM 15.1 °F - 10.9 °F 84% 29.71 in 0.2 mi Calm Calm - 0.04 in Fog , Snow Snow
7:49 AM 14.0 °F 6.5 °F 10.4 °F 86% 29.71 in 0.2 mi Variable 4.6 mph - 0.05 in Fog , Snow Heavy Snow
7:52 AM 14.0 °F 6.5 °F 10.9 °F 88% 29.77 in 0.2 mi NW 4.6 mph - 0.06 in Fog , Snow Heavy Snow
8:13 AM 12.9 °F - 10.0 °F 88% 29.68 in 0.5 mi Calm Calm - 0.02 in Fog , Snow Snow
8:21 AM 14.0 °F - 10.0 °F 84% 29.67 in 0.2 mi Calm Calm - 0.03 in Fog , Snow Snow
8:52 AM 12.9 °F - 10.0 °F 88% 29.73 in 0.2 mi Calm Calm - 0.06 in Fog , Snow Snow
9:12 AM 12.9 °F - 10.0 °F 88% 29.64 in 0.5 mi Calm Calm - 0.01 in Fog , Snow Snow
9:52 AM 14.0 °F 8.2 °F 10.0 °F 84% 29.67 in 0.5 mi WNW 3.5 mph - 0.03 in Fog , Snow Light Snow
10:52 AM 15.1 °F 6.4 °F 10.0 °F 80% 29.61 in 0.5 mi NNW 5.8 mph - 0.02 in Snow Snow
11:16 AM 15.1 °F 5.2 °F 10.0 °F 80% 29.51 in 1.0 mi NNW 6.9 mph - 0.00 in Snow Light Snow
11:52 AM 16.0 °F 4.4 °F 10.0 °F 77% 29.56 in 1.2 mi North 9.2 mph - 0.00 in Snow Light Snow
12:20 PM 16.0 °F 4.4 °F 10.0 °F 77% 29.47 in 1.8 mi North 9.2 mph - 0.00 in Snow Light Snow
12:23 PM 16.0 °F 6.3 °F 10.9 °F 81% 29.48 in 2.0 mi NNW 6.9 mph - 0.00 in Snow Light Snow
12:40 PM 16.0 °F 4.4 °F 10.0 °F 77% 29.46 in 4.0 mi NNW 9.2 mph - 0.00 in   Haze
12:52 PM 16.0 °F 3.6 °F 10.9 °F 81% 29.53 in 4.0 mi North 10.4 mph - 0.00 in   Haze
1:52 PM 17.1 °F 8.7 °F 10.0 °F 74% 29.53 in 10.0 mi North 5.8 mph - N/A   Overcast
2:52 PM 17.1 °F 10.0 °F 10.9 °F 77% 29.53 in 10.0 mi NNW 4.6 mph - N/A   Overcast
3:22 PM 18.0 °F - 10.9 °F 74% 29.47 in 10.0 mi Calm Calm - N/A   Overcast
3:52 PM 18.0 °F - 12.0 °F 78% 29.55 in 10.0 mi Calm Calm - N/A   Overcast
4:52 PM 17.1 °F - 12.9 °F 84% 29.57 in 10.0 mi Calm Calm - N/A   Overcast
5:52 PM 17.1 °F - 12.9 °F 84% 29.57 in 5.0 mi Calm Calm - 0.00 in Snow Light Snow
6:38 PM 16.0 °F 10.4 °F 12.9 °F 88% 29.52 in 3.0 mi SSE 3.5 mph - 0.00 in Snow Light Snow
6:52 PM 15.1 °F - 12.0 °F 88% 29.59 in 4.0 mi Calm Calm - 0.00 in Snow Light Snow
7:07 PM 16.0 °F 10.4 °F 12.9 °F 88% 29.52 in 2.5 mi SSE 3.5 mph - 0.00 in Snow Light Snow
7:16 PM 15.1 °F - 12.0 °F 88% 29.53 in 3.0 mi Calm Calm - 0.00 in Snow Light Snow
7:52 PM 17.1 °F 11.7 °F 12.9 °F 84% 29.60 in 4.0 mi SSE 3.5 mph - 0.00 in Snow Light Snow
8:30 PM 18.0 °F 11.1 °F 14.0 °F 84% 29.54 in 2.5 mi NNE 4.6 mph - 0.00 in Snow Light Snow
8:49 PM 17.6 °F - 14.0 °F 86% 29.54 in 1.8 mi Calm Calm - 0.00 in Snow Light Snow
8:52 PM 18.0 °F - 14.0 °F 84% 29.61 in 1.8 mi Calm Calm - 0.00 in Snow Light Snow
9:04 PM 19.0 °F 12.3 °F 15.1 °F 85% 29.55 in 2.0 mi NW 4.6 mph - 0.00 in Snow Light Snow
9:23 PM 19.9 °F 12.1 °F 15.1 °F 81% 29.55 in 3.0 mi NNW 5.8 mph - 0.00 in Snow Light Snow
9:52 PM 19.9 °F 11.1 °F 14.0 °F 78% 29.63 in 4.0 mi NNW 6.9 mph - 0.00 in Snow Light Snow
10:52 PM 18.0 °F 11.1 °F 12.0 °F 78% 29.64 in 4.0 mi Variable 4.6 mph - 0.00 in Snow Light Snow
11:15 PM 18.0 °F 8.7 °F 10.9 °F 74% 29.58 in 5.0 mi NW 6.9 mph - 0.00 in Snow Light Snow
11:52 PM 17.1 °F 8.7 °F 10.0 °F 74% 29.65 in 10.0 mi NNW 5.8 mph - 0.00 in   Overcast